| time (UTC) | temp F | wind direction | speed MPH | gust MPH | rain 1hr in | rain 24hr in | rain mn in | humidity % | barometer mb |
| 20260902051521 | 49 | 0.0 | 0.0 | 0.00 | 0.01 | 0.00 | 1 | 1006.8 | |
| 20260902050522 | 48 | 0.0 | 0.0 | 0.00 | 0.01 | 0.00 | 1 | 1006.9 | |
| 20260902045521 | 47 | 0.0 | 0.0 | 0.00 | 0.01 | 0.00 | 1 | 1006.8 | |
| 20260902044521 | 46 | 0.0 | 0.0 | 0.00 | 0.01 | 0.00 | 1 | 1006.8 | |
| 20260902043521 | 45 | 0.0 | 0.0 | 0.00 | 0.01 | 0.00 | 1 | 1006.8 | |
| 20260902042522 | 45 | 0.0 | 0.0 | 0.00 | 0.01 | 0.00 | 1 | 1006.8 | |
| 20260902041522 | 44 | 0.0 | 0.0 | 0.00 | 0.01 | 0.00 | 1 | 1006.8 | |
| 20260902040522 | 44 | 0.0 | 0.0 | 0.00 | 0.01 | 0.00 | 1 | 1006.7 | |
| 20260902035522 | 44 | 0.0 | 0.0 | 0.00 | 0.01 | 0.00 | 1 | 1006.7 | |
| 20260902034521 | 43 | 0.0 | 0.0 | 0.00 | 0.01 | 0.00 | 1 | 1006.6 | |
| 20260902033521 | 43 | 0.0 | 0.0 | 0.00 | 0.01 | 0.00 | 1 | 1006.6 | |
| 20260902032522 | 44 | 0.0 | 0.0 | 0.00 | 0.01 | 0.00 | 1 | 1006.6 | |
| 20260902031521 | 44 | 0.0 | 0.0 | 0.00 | 0.01 | 0.00 | 1 | 1006.5 | |
| 20260902030522 | 44 | 0.0 | 0.0 | 0.00 | 0.01 | 0.00 | 1 | 1006.6 | |
| 20260902025521 | 44 | 0.0 | 0.0 | 0.00 | 0.01 | 0.00 | 1 | 1006.6 | |
| 20260902024521 | 44 | 0.0 | 0.0 | 0.00 | 0.01 | 0.00 | 1 | 1006.6 | |
| 20260902023521 | 44 | 0.0 | 0.0 | 0.00 | 0.01 | 0.00 | 1 | 1006.6 | |
| 20260902022521 | 44 | 0.0 | 0.0 | 0.00 | 0.01 | 0.00 | 1 | 1006.6 | |
| 20260902021522 | 44 | 0.0 | 0.0 | 0.00 | 0.01 | 0.00 | 1 | 1006.6 | |
| 20260902020542 | 45 | 0.0 | 0.0 | 0.00 | 0.01 | 0.00 | 1 | 1006.5 | |
| 20260902010521 | 46 | 0.0 | 0.0 | 0.00 | 0.01 | 0.00 | 1 | 1006.6 | |
| 20260902005521 | 47 | 0.0 | 0.0 | 0.00 | 0.01 | 0.00 | 1 | 1006.6 | |
| 20260902004522 | 47 | 0.0 | 0.0 | 0.00 | 0.01 | 0.00 | 1 | 1006.7 | |
| 20260902003522 | 47 | 0.0 | 0.0 | 0.00 | 0.01 | 0.00 | 1 | 1006.7 | |
| 20260902002521 | 47 | 0.0 | 0.0 | 0.00 | 0.01 | 0.00 | 1 | 1006.7 | |
| 20260902001522 | 47 | 0.0 | 0.0 | 0.00 | 0.01 | 0.00 | 1 | 1006.7 | |
| 20260902000541 | 47 | 0.0 | 0.0 | 0.00 | 0.01 | 0.00 | 1 | 1006.7 | |
| 20260901230521 | 49 | 0.0 | 1.0 | 0.00 | 0.01 | 0.00 | 1 | 1006.8 | |
| 20260901225522 | 50 | 0.0 | 0.0 | 0.00 | 0.01 | 0.00 | 1 | 1006.9 | |
| 20260901224522 | 50 | 0.0 | 0.0 | 0.00 | 0.01 | 0.00 | 1 | 1006.8 | |
| 20260901223521 | 51 | 0.0 | 0.0 | 0.00 | 0.01 | 0.00 | 1 | 1006.7 | |
| 20260901222521 | 51 | 0.0 | 0.0 | 0.00 | 0.01 | 0.00 | 1 | 1006.7 | |
| 20260901221522 | 52 | 0.0 | 0.0 | 0.00 | 0.01 | 0.00 | 1 | 1006.8 | |
| 20260901220522 | 52 | 0.0 | 0.0 | 0.00 | 0.01 | 0.00 | 1 | 1006.6 | |
| 20260901215522 | 53 | 0.0 | 2.0 | 0.00 | 0.01 | 0.00 | 1 | 1006.7 | |
| 20260901214522 | 53 | 0.0 | 1.0 | 0.00 | 0.01 | 0.00 | 1 | 1006.7 | |
| 20260901213523 | 53 | 0.0 | 4.0 | 0.00 | 0.01 | 0.00 | 1 | 1006.8 | |
| 20260901212522 | 54 | 0.0 | 3.0 | 0.00 | 0.01 | 0.00 | 1 | 1006.7 | |
| 20260901211521 | 54 | 293 | 1.0 | 2.0 | 0.00 | 0.01 | 0.00 | 1 | 1006.6 |
| 20260901210522 | 54 | 0.0 | 0.0 | 0.00 | 0.01 | 0.00 | 1 | 1006.6 | |
| 20260901205522 | 55 | 0.0 | 3.0 | 0.00 | 0.01 | 0.01 | 1 | 1006.5 | |
| 20260901204521 | 55 | 0.0 | 0.0 | 0.00 | 0.01 | 0.01 | 1 | 1006.6 | |
| 20260901203522 | 55 | 0.0 | 0.0 | 0.00 | 0.01 | 0.01 | 1 | 1006.6 | |
| 20260901202522 | 55 | 0.0 | 2.0 | 0.00 | 0.01 | 0.01 | 1 | 1006.6 | |
| 20260901201521 | 56 | 0.0 | 2.0 | 0.00 | 0.01 | 0.01 | 1 | 1006.6 | |
| 20260901200522 | 56 | 293 | 1.0 | 7.0 | 0.00 | 0.01 | 0.01 | 1 | 1006.6 |
| 20260901195542 | 56 | 0.0 | 0.0 | 0.00 | 0.01 | 0.01 | 1 | 1006.6 | |
| 20260901155522 | 65 | 0.0 | 2.0 | 0.00 | 0.01 | 0.01 | 63 | 1005.9 | |
| 20260901154522 | 66 | 0.0 | 0.0 | 0.00 | 0.01 | 0.01 | 60 | 1005.9 | |
| 20260901153521 | 65 | 0.0 | 0.0 | 0.00 | 0.01 | 0.01 | 57 | 1005.9 | |
| 20260901152521 | 65 | 0.0 | 4.0 | 0.00 | 0.01 | 0.01 | 61 | 1005.9 | |
| 20260901151522 | 65 | 0.0 | 2.0 | 0.00 | 0.01 | 0.01 | 67 | 1005.9 | |
| 20260901150522 | 66 | 0.0 | 4.0 | 0.00 | 0.01 | 0.01 | 70 | 1005.9 | |
| 20260901145521 | 66 | 0.0 | 1.0 | 0.00 | 0.01 | 0.01 | 71 | 1006.0 | |
| 20260901144521 | 66 | 225 | 1.0 | 7.0 | 0.00 | 0.01 | 0.01 | 73 | 1006.0 |
| 20260901143522 | 66 | 203 | 2.0 | 7.0 | 0.00 | 0.01 | 0.01 | 73 | 1006.0 |
| 20260901142522 | 66 | 0.0 | 3.0 | 0.00 | 0.01 | 0.01 | 68 | 1006.1 | |
| 20260901141521 | 66 | 158 | 1.0 | 4.0 | 0.00 | 0.01 | 0.01 | 71 | 1006.2 |
| 20260901140521 | 66 | 203 | 1.0 | 4.0 | 0.00 | 0.01 | 0.01 | 72 | 1006.2 |
| 20260901135541 | 66 | 203 | 1.0 | 6.0 | 0.00 | 0.01 | 0.01 | 72 | 1006.2 |
| 20260901115522 | 66 | 180 | 2.0 | 9.0 | 0.00 | 0.01 | 0.01 | 69 | 1006.6 |
| 20260901114522 | 66 | 248 | 1.0 | 6.0 | 0.00 | 0.01 | 0.01 | 70 | 1006.5 |
| 20260901113521 | 66 | 203 | 2.0 | 9.0 | 0.00 | 0.01 | 0.01 | 70 | 1006.6 |
| 20260901112521 | 66 | 248 | 1.0 | 9.0 | 0.00 | 0.01 | 0.01 | 66 | 1006.6 |
| 20260901111521 | 66 | 225 | 1.0 | 6.0 | 0.00 | 0.01 | 0.01 | 66 | 1006.5 |
| 20260901110522 | 66 | 180 | 2.0 | 8.0 | 0.00 | 0.01 | 0.01 | 66 | 1006.5 |
| 20260901105521 | 65 | 180 | 1.0 | 5.0 | 0.00 | 0.02 | 0.01 | 61 | 1006.5 |
| 20260901104602 | 65 | 203 | 1.0 | 6.0 | 0.00 | 0.02 | 0.01 | 60 | 1006.5 |
| 20260901064522 | 61 | 0.0 | 3.0 | 0.00 | 0.01 | 0.00 | 1 | 1005.9 | |
| 20260901063522 | 60 | 0.0 | 2.0 | 0.00 | 0.01 | 0.00 | 1 | 1006.0 | |
| 20260901062522 | 60 | 203 | 1.0 | 5.0 | 0.00 | 0.01 | 0.00 | 1 | 1006.0 |
| 20260901061521 | 60 | 0.0 | 2.0 | 0.00 | 0.01 | 0.00 | 1 | 1005.9 | |
| 20260901060521 | 60 | 0.0 | 1.0 | 0.00 | 0.01 | 0.00 | 1 | 1006.0 | |
| 20260901055522 | 61 | 0.0 | 5.0 | 0.00 | 0.01 | 0.00 | 1 | 1006.0 | |
| 20260901054522 | 61 | 0.0 | 3.0 | 0.00 | 0.01 | 0.00 | 1 | 1005.9 | |
| 20260901053521 | 61 | 0.0 | 0.0 | 0.00 | 0.01 | 0.00 | 1 | 1005.9 | |
| 20260901052521 | 61 | 0.0 | 4.0 | 0.00 | 0.01 | 0.00 | 1 | 1005.8 |